Location: Newark
(43.4306°N, 0.3089°E)
Time: 21:43:36
(UTC+00:00)

A-11 Canister half - Pass Details

Date: 25 August 2019
Orbit: 1514 x 1686 km, 47.2° (Epoch: 15 September)

Event Time Altitude Azimuth Distance (km) Brightness Sun altitude
Rises 18:55:10 0° 261° (W) 4,685 12.9 -2.3°
Reaches altitude 10° 18:58:12 10° 263° (W) 3,720 12.3 -2.8°
Maximum altitude 19:07:39 75° 349° (N) 1,629 9.3 -4.5°
Drops below altitude 10° 19:17:30 10° 75° (ENE) 3,859 10.6 -6.1°
Sets 19:20:41 0° 78° (ENE) 4,868 11.1 -6.7°
